カタログに戻る

MORELOS 1 R/B

PAM-D

運用中GTO
NORAD 15832·ROCKET BODY·🇺🇸 United States

打ち上げ Jun 17, 1985 から Cape Canaveral Space Force Station

Loading…

TLE

経年Source: Space-Track

元期: Sep 14, 2026, 12:15 UTC

1 15832U 85048F   26257.51063873  .00000230  00000-0  73941-3 0  9991
2 15832  25.8742   3.2214 7134317 250.3226  24.8808  2.39105602298037

AllMySatでMORELOS 1 R/Bをリアルタイム追跡

Download on the App Store